| time (UTC) | temp C | wind direction | speed KPH | gust KPH | rain 1hr cm | rain 24hr cm | rain mn cm | humidity % | barometer mb |
| 20260503193051 | 21 | 158 | 3.2 | 6.4 | 0.00 | 0.00 | 0.00 | 51 | 1008.0 |
| 20260503192549 | 20 | 158 | 3.2 | 6.4 | 0.00 | 0.00 | 0.00 | 53 | 1008.0 |
| 20260503192051 | 20 | 23 | 3.2 | 6.4 | 0.00 | 0.00 | 0.00 | 53 | 1008.0 |
| 20260503191549 | 21 | 113 | 3.2 | 6.4 | 0.00 | 0.00 | 0.00 | 50 | 1008.0 |
| 20260503191048 | 21 | 113 | 3.2 | 6.4 | 0.00 | 0.00 | 0.00 | 50 | 1008.3 |
| 20260503190050 | 21 | 135 | 3.2 | 9.7 | 0.00 | 0.00 | 0.00 | 50 | 1008.0 |
| 20260503185550 | 21 | 270 | 4.8 | 9.7 | 0.00 | 0.00 | 0.00 | 50 | 1008.0 |
| 20260503185051 | 22 | 338 | 3.2 | 11.3 | 0.00 | 0.00 | 0.00 | 50 | 1008.0 |
| 20260503184549 | 22 | 135 | 4.8 | 11.3 | 0.00 | 0.00 | 0.00 | 49 | 1008.0 |
| 20260503184048 | 21 | 225 | 3.2 | 8.0 | 0.00 | 0.00 | 0.00 | 50 | 1008.0 |
| 20260503183549 | 21 | 338 | 3.2 | 8.0 | 0.00 | 0.00 | 0.00 | 53 | 1008.0 |
| 20260503183050 | 21 | 270 | 3.2 | 8.0 | 0.00 | 0.00 | 0.00 | 53 | 1008.3 |
| 20260503182549 | 20 | 225 | 3.2 | 4.8 | 0.00 | 0.00 | 0.00 | 54 | 1008.3 |
| 20260503182047 | -17 | 0.0 | 0.0 | 0.00 | 0.00 | 0.00 | |||
| 20260503180742 | 20 | 90 | 3.2 | 0.0 | 0.00 | 0.00 | 0.00 | 56 | 1008.3 |
| 20260503175849 | 20 | 90 | 3.2 | 6.4 | 0.00 | 0.00 | 0.00 | 56 | 1008.3 |
| 20260503175347 | 19 | 113 | 3.2 | 4.8 | 0.00 | 0.00 | 0.00 | 60 | 1008.3 |
| 20260503174848 | 18 | 45 | 1.6 | 3.2 | 0.00 | 0.00 | 0.00 | 61 | 1008.3 |
| 20260503174348 | 18 | 270 | 1.6 | 6.4 | 0.00 | 0.00 | 0.00 | 63 | 1008.3 |
| 20260503173849 | 18 | 23 | 3.2 | 6.4 | 0.00 | 0.00 | 0.00 | 61 | 1008.3 |
| 20260503173347 | 17 | 68 | 1.6 | 4.8 | 0.00 | 0.00 | 0.00 | 63 | 1008.3 |
| 20260503172849 | 18 | 68 | 3.2 | 4.8 | 0.00 | 0.00 | 0.00 | 63 | 1008.3 |
| 20260503171837 | 18 | 45 | 3.2 | 6.4 | 0.00 | 0.00 | 0.00 | 63 | 1008.3 |
| 20260503170837 | 19 | 270 | 3.2 | 4.8 | 0.00 | 0.00 | 0.00 | 61 | 1008.3 |
| 20260503170339 | 19 | 45 | 1.6 | 4.8 | 0.00 | 0.00 | 0.00 | 63 | 1008.0 |
| 20260503150838 | 14 | 315 | 3.2 | 6.4 | 0.00 | 0.00 | 0.00 | 80 | 1007.7 |
| 20260503150339 | 14 | 293 | 3.2 | 8.0 | 0.00 | 0.00 | 0.00 | 81 | 1007.7 |
| 20260503131322 | 12 | 23 | 0.0 | 0.0 | 0.00 | 0.00 | 0.00 | 83 | 1006.6 |
| 20260503130821 | 12 | 23 | 0.0 | 1.6 | 0.00 | 0.00 | 0.00 | 83 | 1006.3 |
| 20260503130324 | 12 | 45 | 0.0 | 1.6 | 0.00 | 0.00 | 0.00 | 83 | 1006.3 |
| 20260503110755 | 13 | 315 | 0.0 | 1.6 | 0.00 | 0.00 | 0.00 | 81 | 1006.3 |
| 20260503110252 | 13 | 293 | 0.0 | 1.6 | 0.00 | 0.00 | 0.00 | 81 | 1006.3 |
| 20260503100234 | 13 | 270 | 0.0 | 3.2 | 0.00 | 0.00 | 0.00 | 81 | 1006.0 |
| 20260503090225 | 13 | 315 | 0.0 | 3.2 | 0.00 | 0.00 | 0.00 | 81 | 1006.0 |
| 20260503081223 | 13 | 315 | 1.6 | 3.2 | 0.00 | 0.00 | 0.00 | 81 | 1006.6 |
| 20260503080723 | 13 | 293 | 0.0 | 1.6 | 0.00 | 0.00 | 0.00 | 81 | 1006.6 |
| 20260503080223 | 13 | 270 | 0.0 | 3.2 | 0.00 | 0.00 | 0.00 | 81 | 1006.6 |
| 20260503072726 | 13 | 270 | 0.0 | 4.8 | 0.00 | 0.00 | 0.00 | 81 | 1007.0 |
| 20260503072224 | 13 | 270 | 1.6 | 3.2 | 0.00 | 0.00 | 0.00 | 81 | 1007.0 |
| 20260503071724 | -17 | 0.0 | 0.0 | 0.00 | 0.00 | 0.00 | |||
| 20260503060230 | 13 | 225 | 3.2 | 4.8 | 0.00 | 0.00 | 0.00 | 79 | 1007.0 |
| 20260503054728 | 13 | 0 | 3.2 | 6.4 | 0.00 | 0.00 | 0.00 | 79 | 1007.0 |
| 20260503053725 | 13 | 293 | 3.2 | 4.8 | 0.00 | 0.00 | 0.00 | 79 | 1007.3 |
| 20260503053228 | 13 | 270 | 3.2 | 6.4 | 0.00 | 0.00 | 0.00 | 79 | 1007.3 |
| 20260503051719 | 13 | 293 | 3.2 | 6.4 | 0.00 | 0.00 | 0.00 | 79 | 1007.3 |
| 20260503050217 | 13 | 270 | 3.2 | 6.4 | 0.00 | 0.00 | 0.00 | 79 | 1007.3 |
| 20260503045719 | 13 | 23 | 3.2 | 6.4 | 0.00 | 0.00 | 0.00 | 79 | 1007.0 |
| 20260503045214 | 13 | 248 | 3.2 | 8.0 | 0.00 | 0.00 | 0.00 | 79 | 1007.3 |
| 20260503044712 | 13 | 270 | 4.8 | 8.0 | 0.00 | 0.00 | 0.00 | 78 | 1007.3 |
| 20260503043715 | 13 | 315 | 1.6 | 4.8 | 0.00 | 0.00 | 0.00 | 78 | 1007.0 |
| 20260503042711 | 13 | 270 | 3.2 | 6.4 | 0.00 | 0.00 | 0.00 | 78 | 1007.0 |
| 20260503042211 | 13 | 293 | 3.2 | 9.7 | 0.00 | 0.00 | 0.00 | 78 | 1007.0 |
| 20260503041207 | 14 | 293 | 1.6 | 6.4 | 0.00 | 0.00 | 0.00 | 76 | 1007.0 |
| 20260503040709 | 14 | 293 | 0.0 | 8.0 | 0.00 | 0.00 | 0.00 | 76 | 1007.0 |
| 20260503035708 | 14 | 270 | 1.6 | 8.0 | 0.00 | 0.00 | 0.00 | 76 | 1006.6 |
| 20260503035204 | 14 | 270 | 3.2 | 8.0 | 0.00 | 0.00 | 0.00 | 76 | 1006.6 |
| 20260503033658 | 14 | 270 | 8.0 | 12.9 | 0.00 | 0.00 | 0.00 | 75 | 1006.3 |
| 20260503033158 | 14 | 270 | 4.8 | 8.0 | 0.00 | 0.00 | 0.00 | 75 | 1006.6 |
| 20260503032656 | 14 | 293 | 6.4 | 11.3 | 0.00 | 0.00 | 0.00 | 75 | 1006.3 |
| 20260503032157 | 14 | 270 | 6.4 | 11.3 | 0.00 | 0.00 | 0.00 | 75 | 1006.3 |
| 20260503031652 | 14 | 293 | 6.4 | 11.3 | 0.00 | 0.00 | 0.00 | 75 | 1006.3 |
| 20260503031152 | 14 | 270 | 6.4 | 11.3 | 0.00 | 0.00 | 0.00 | 75 | 1006.3 |
| 20260503030653 | 14 | 270 | 4.8 | 11.3 | 0.00 | 0.00 | 0.00 | 75 | 1006.3 |
| 20260503030151 | 15 | 293 | 3.2 | 8.0 | 0.00 | 0.00 | 0.00 | 75 | 1006.3 |
| 20260503025650 | 15 | 248 | 3.2 | 8.0 | 0.00 | 0.00 | 0.00 | 75 | 1006.3 |
| 20260503025151 | 15 | 315 | 3.2 | 6.4 | 0.00 | 0.00 | 0.00 | 75 | 1006.0 |
| 20260503024140 | 15 | 203 | 1.6 | 9.7 | 0.00 | 0.00 | 0.00 | 74 | 1006.0 |
| 20260503023642 | 15 | 293 | 6.4 | 12.9 | 0.00 | 0.00 | 0.00 | 74 | 1006.0 |
| 20260503022139 | 15 | 293 | 6.4 | 12.9 | 0.00 | 0.00 | 0.00 | 74 | 1005.6 |
| 20260503021639 | 15 | 315 | 4.8 | 11.3 | 0.00 | 0.00 | 0.00 | 73 | 1005.6 |
| 20260503021128 | 15 | 293 | 6.4 | 11.3 | 0.00 | 0.00 | 0.00 | 73 | 1005.6 |
| 20260503020630 | 16 | 270 | 6.4 | 14.5 | 0.00 | 0.00 | 0.00 | 73 | 1006.0 |
| 20260503020130 | 16 | 270 | 6.4 | 14.5 | 0.00 | 0.00 | 0.00 | 73 | 1005.6 |
| 20260503014627 | 16 | 293 | 6.4 | 11.3 | 0.00 | 0.00 | 0.00 | 73 | 1006.0 |
| 20260503013619 | 17 | 270 | 6.4 | 11.3 | 0.00 | 0.00 | 0.00 | 70 | 1006.0 |
| 20260503013117 | 17 | 270 | 6.4 | 11.3 | 0.00 | 0.00 | 0.00 | 70 | 1006.0 |
| 20260503012615 | 17 | 270 | 6.4 | 11.3 | 0.00 | 0.00 | 0.00 | 70 | 1006.0 |
| 20260503012115 | 18 | 293 | 4.8 | 11.3 | 0.00 | 0.00 | 0.00 | 69 | 1006.0 |
| 20260503011614 | 18 | 270 | 4.8 | 9.7 | 0.00 | 0.00 | 0.00 | 68 | 1006.0 |
| 20260503011114 | 18 | 270 | 4.8 | 12.9 | 0.00 | 0.00 | 0.00 | 68 | 1006.0 |
| 20260503010118 | 18 | 270 | 6.4 | 11.3 | 0.00 | 0.00 | 0.00 | 69 | 1005.6 |
| 20260503005613 | 18 | 293 | 9.7 | 12.9 | 0.00 | 0.00 | 0.00 | 68 | 1005.6 |
| 20260503005110 | 18 | 270 | 9.7 | 12.9 | 0.00 | 0.00 | 0.00 | 65 | 1006.0 |
| 20260503004612 | 19 | 270 | 4.8 | 12.9 | 0.00 | 0.00 | 0.00 | 65 | 1005.6 |
| 20260503004108 | 19 | 293 | 6.4 | 12.9 | 0.00 | 0.00 | 0.00 | 65 | 1005.6 |
| 20260503003607 | 19 | 248 | 6.4 | 11.3 | 0.00 | 0.00 | 0.00 | 65 | 1005.6 |
| 20260503003110 | 19 | 270 | 6.4 | 12.9 | 0.00 | 0.00 | 0.00 | 65 | 1006.0 |
| 20260503002605 | 19 | 270 | 8.0 | 14.5 | 0.00 | 0.00 | 0.00 | 65 | 1006.0 |
| 20260503001608 | 20 | 270 | 9.7 | 14.5 | 0.00 | 0.00 | 0.00 | 61 | 1006.0 |
| 20260503001106 | 20 | 203 | 9.7 | 12.9 | 0.00 | 0.00 | 0.00 | 59 | 1005.6 |
| 20260503000607 | 21 | 293 | 8.0 | 11.3 | 0.00 | 0.00 | 0.00 | 56 | 1006.0 |
| 20260503000105 | 22 | 225 | 3.2 | 11.3 | 0.00 | 0.00 | 0.00 | 56 | 1006.0 |
| 20260502235606 | 22 | 293 | 3.2 | 11.3 | 0.00 | 0.00 | 0.00 | 58 | 1006.0 |
| 20260502235106 | 21 | 248 | 6.4 | 14.5 | 0.00 | 0.00 | 0.00 | 58 | 1006.0 |
| 20260502234605 | 21 | 248 | 9.7 | 14.5 | 0.00 | 0.00 | 0.00 | 58 | 1006.0 |
| 20260502234101 | 23 | 338 | 6.4 | 12.9 | 0.00 | 0.00 | 0.00 | 55 | 1006.0 |
| 20260502233604 | 23 | 315 | 6.4 | 14.5 | 0.00 | 0.00 | 0.00 | 54 | 1006.0 |
| 20260502233057 | 23 | 315 | 6.4 | 14.5 | 0.00 | 0.00 | 0.00 | 54 | 1006.0 |
| 20260502232555 | 23 | 270 | 4.8 | 11.3 | 0.00 | 0.00 | 0.00 | 54 | 1006.0 |
| 20260502232054 | 23 | 68 | 3.2 | 8.0 | 0.00 | 0.00 | 0.00 | 54 | 1006.0 |
| 20260502231553 | 23 | 293 | 4.8 | 12.9 | 0.00 | 0.00 | 0.00 | 55 | 1006.0 |
| 20260502231050 | 23 | 270 | 8.0 | 12.9 | 0.00 | 0.00 | 0.00 | 55 | 1006.0 |
| 20260502230550 | 23 | 315 | 4.8 | 11.3 | 0.00 | 0.00 | 0.00 | 53 | 1006.3 |
| 20260502225547 | 25 | 270 | 3.2 | 12.9 | 0.00 | 0.00 | 0.00 | 51 | 1006.3 |
| 20260502225050 | 24 | 270 | 4.8 | 12.9 | 0.00 | 0.00 | 0.00 | 51 | 1006.3 |
| 20260502224047 | 25 | 0 | 4.8 | 9.7 | 0.00 | 0.00 | 0.00 | 50 | 1006.3 |
| 20260502223046 | 26 | 23 | 4.8 | 12.9 | 0.00 | 0.00 | 0.00 | 50 | 1006.6 |
| 20260502222548 | 26 | 225 | 3.2 | 4.8 | 0.00 | 0.00 | 0.00 | 50 | 1006.6 |
| 20260502222040 | 25 | 248 | 3.2 | 14.5 | 0.00 | 0.00 | 0.00 | 50 | 1006.6 |
| 20260502221536 | 25 | 270 | 6.4 | 14.5 | 0.00 | 0.00 | 0.00 | 53 | 1007.0 |
| 20260502221035 | 25 | 315 | 8.0 | 11.3 | 0.00 | 0.00 | 0.00 | 50 | 1007.0 |
| 20260502220537 | 25 | 180 | 4.8 | 11.3 | 0.00 | 0.00 | 0.00 | 50 | 1007.0 |
| 20260502220036 | 26 | 293 | 6.4 | 11.3 | 0.00 | 0.00 | 0.00 | 49 | 1007.0 |
| 20260502215535 | 26 | 293 | 3.2 | 9.7 | 0.00 | 0.00 | 0.00 | 48 | 1007.0 |
| 20260502215038 | 26 | 248 | 3.2 | 9.7 | 0.00 | 0.00 | 0.00 | 50 | 1007.3 |
| 20260502214534 | 26 | 203 | 3.2 | 8.0 | 0.00 | 0.00 | 0.00 | 48 | 1007.3 |
| 20260502214035 | 26 | 0 | 3.2 | 6.4 | 0.00 | 0.00 | 0.00 | 48 | 1007.3 |
| 20260502213531 | 26 | 338 | 3.2 | 11.3 | 0.00 | 0.00 | 0.00 | 49 | 1007.3 |
| 20260502213028 | 25 | 248 | 4.8 | 11.3 | 0.00 | 0.00 | 0.00 | 53 | 1007.3 |
| 20260502212531 | 25 | 293 | 4.8 | 11.3 | 0.00 | 0.00 | 0.00 | 50 | 1007.3 |
| 20260502212025 | 25 | 270 | 6.4 | 11.3 | 0.00 | 0.00 | 0.00 | 50 | 1007.3 |
| 20260502211527 | 26 | 248 | 4.8 | 11.3 | 0.00 | 0.00 | 0.00 | 49 | 1007.3 |
| 20260502211028 | 26 | 270 | 4.8 | 11.3 | 0.00 | 0.00 | 0.00 | 49 | 1007.3 |
| 20260502210528 | 26 | 293 | 4.8 | 8.0 | 0.00 | 0.00 | 0.00 | 48 | 1007.3 |
| 20260502210027 | 26 | 270 | 3.2 | 6.4 | 0.00 | 0.00 | 0.00 | 49 | 1007.3 |
| 20260502205530 | 26 | 270 | 3.2 | 8.0 | 0.00 | 0.00 | 0.00 | 49 | 1007.7 |
| 20260502205027 | 25 | 23 | 4.8 | 9.7 | 0.00 | 0.00 | 0.00 | 50 | 1007.7 |
| 20260502204526 | 26 | 338 | 4.8 | 8.0 | 0.00 | 0.00 | 0.00 | 48 | 1007.7 |
| 20260502203523 | 25 | 180 | 4.8 | 8.0 | 0.00 | 0.00 | 0.00 | 50 | 1007.7 |
| 20260502203023 | 25 | 135 | 3.2 | 6.4 | 0.00 | 0.00 | 0.00 | 50 | 1007.7 |
| 20260502202025 | 24 | 0 | 3.2 | 9.7 | 0.00 | 0.00 | 0.00 | 51 | 1008.0 |
| 20260502201522 | 24 | 225 | 4.8 | 9.7 | 0.00 | 0.00 | 0.00 | 51 | 1008.0 |
| 20260502201021 | 24 | 45 | 3.2 | 6.4 | 0.00 | 0.00 | 0.00 | 53 | 1008.0 |
| 20260502200525 | 23 | 315 | 4.8 | 6.4 | 0.00 | 0.00 | 0.00 | 54 | 1008.3 |
| 20260502200022 | 24 | 315 | 3.2 | 6.4 | 0.00 | 0.00 | 0.00 | 53 | 1008.3 |
| 20260502195521 | 23 | 270 | 3.2 | 6.4 | 0.00 | 0.00 | 0.00 | 55 | 1008.3 |
| 20260502194519 | 22 | 315 | 4.8 | 9.7 | 0.00 | 0.00 | 0.00 | 56 | 1008.7 |
| 20260502193515 | 23 | 293 | 4.8 | 9.7 | 0.00 | 0.00 | 0.00 | 55 | 1008.7 |